User: anonymous   Login
Location: Walnut Point State Park
(39.6958°N, 88.0345°W)
Time: 10:52:18
(UTC-06:00)
Language:

Iridium 75 - Orbit

View from above orbital plane
View from above orbital plane
View from above satellite
View from above satellite

Ground track
Ground track

The orbit data is extracted from the following two-line orbital elements,

1 25346U 98032E   17056.57697615  .00000035  00000-0  53770-5 0  9992
2 25346  86.3928 270.7621 0002068  87.0843 302.5066 14.34217993983677
Epoch (UTC): 25 February 2017 13:50:50
Eccentricity: 0.0002068
inclination: 86.3928°
perigee height: 776 km
apogee height: 779 km
right ascension of ascending node: 270.7621°
argument of perigee: 87.0843°
revolutions per day: 14.34217993
mean anomaly at epoch: 302.5066°
orbit number at epoch: 98367

The dashed part of the orbit path shows where the satellite is in the earth's shadow,  

DLR